AJB504 SAME-SCEL

Flight info

Callsign AJB504
Flight time 0h 54m
Altitude 24000
Route UMKAL1G UMKAL UMKAL7C
Aircraft AT76/M-SDFGIRY/S

Departure

Time 2026-05-06 04:01
Airport Governor Francisco Gabrielli International Airport (SAME)

Arrival

Time 2026-05-06 04:56
Airport Comodoro Arturo Merino Benítez International Airport (SCEL)
Time Latitude Longitude Altitude Speed Heading
2026-05-06 03:31 -32.82839 -68.79782 2390 ft 0 kts 271°
2026-05-06 03:49 -32.82840 -68.79775 2391 ft 2 kts 270°
2026-05-06 03:50 -32.82839 -68.79758 2394 ft 2 kts 269°
2026-05-06 03:50 -32.82839 -68.79741 2391 ft 2 kts 270°
2026-05-06 03:50 -32.82840 -68.79726 2392 ft 2 kts 278°
2026-05-06 03:50 -32.82841 -68.79717 2392 ft 1 kts 309°
2026-05-06 03:51 -32.82846 -68.79712 2392 ft 1 kts 340°
2026-05-06 03:51 -32.82851 -68.79710 2392 ft 1 kts 353°
2026-05-06 03:51 -32.82857 -68.79709 2392 ft 1 kts 357°
2026-05-06 03:51 -32.82859 -68.79709 2392 ft 0 kts 358°
2026-05-06 03:55 -32.82844 -68.79709 2392 ft 4 kts
2026-05-06 03:55 -32.82803 -68.79709 2392 ft 7 kts
2026-05-06 03:55 -32.82748 -68.79708 2390 ft 9 kts
2026-05-06 03:56 -32.82684 -68.79703 2391 ft 9 kts 21°
2026-05-06 03:56 -32.82673 -68.79640 2391 ft 8 kts 93°
2026-05-06 03:56 -32.82669 -68.79569 2393 ft 9 kts 71°
2026-05-06 03:56 -32.82635 -68.79508 2392 ft 9 kts 23°
2026-05-06 03:57 -32.82567 -68.79501 2390 ft 10 kts
2026-05-06 03:57 -32.82492 -68.79500 2391 ft 11 kts
2026-05-06 03:57 -32.82413 -68.79499 2391 ft 12 kts
2026-05-06 03:57 -32.82331 -68.79497 2393 ft 12 kts
2026-05-06 03:58 -32.82249 -68.79496 2391 ft 12 kts
2026-05-06 03:58 -32.82165 -68.79495 2389 ft 12 kts
2026-05-06 03:58 -32.82080 -68.79493 2390 ft 12 kts
2026-05-06 03:58 -32.81993 -68.79491 2394 ft 12 kts
2026-05-06 03:59 -32.81931 -68.79440 2394 ft 12 kts 78°
2026-05-06 03:59 -32.81932 -68.79347 2393 ft 11 kts 90°
2026-05-06 03:59 -32.81957 -68.79270 2391 ft 8 kts 160°
2026-05-06 03:59 -32.81974 -68.79267 2393 ft 0 kts 179°
2026-05-06 04:00 -32.81997 -68.79267 2395 ft 15 kts 179°
2026-05-06 04:01 -32.82249 -68.79271 2393 ft 63 kts 180°
2026-05-06 04:01 -32.82866 -68.79282 2397 ft 112 kts 181°
2026-05-06 04:01 -32.83762 -68.79287 2517 ft 139 kts 181°
2026-05-06 04:01 -32.84713 -68.79302 2987 ft 136 kts 180°
2026-05-06 04:02 -32.85749 -68.79299 3186 ft 162 kts 179°
2026-05-06 04:02 -32.86899 -68.79276 3643 ft 164 kts 179°
2026-05-06 04:02 -32.88034 -68.79248 4183 ft 164 kts 180°
2026-05-06 04:02 -32.89193 -68.79271 4647 ft 168 kts 181°
2026-05-06 04:03 -32.90370 -68.79298 5103 ft 170 kts 175°
2026-05-06 04:03 -32.91384 -68.78685 5390 ft 168 kts 122°
2026-05-06 04:03 -32.91616 -68.77376 5638 ft 164 kts 83°
2026-05-06 04:03 -32.91544 -68.76023 5916 ft 167 kts 85°
2026-05-06 04:04 -32.91527 -68.74632 6246 ft 169 kts 88°
2026-05-06 04:04 -32.91582 -68.73227 6548 ft 171 kts 92°
2026-05-06 04:04 -32.91720 -68.71805 6835 ft 175 kts 96°
2026-05-06 04:04 -32.91944 -68.70375 7263 ft 177 kts 97°
2026-05-06 04:05 -32.92192 -68.68911 7611 ft 187 kts 98°
2026-05-06 04:05 -32.92494 -68.67362 7938 ft 195 kts 101°
2026-05-06 04:05 -32.92841 -68.65790 8331 ft 198 kts 101°
2026-05-06 04:05 -32.93189 -68.64192 8704 ft 201 kts 101°
2026-05-06 04:06 -32.93567 -68.62573 9102 ft 205 kts 101°
2026-05-06 04:06 -32.93945 -68.60925 9488 ft 208 kts 101°
2026-05-06 04:06 -32.94325 -68.59253 9852 ft 211 kts 101°
2026-05-06 04:06 -32.94712 -68.57555 10197 ft 213 kts 101°
2026-05-06 04:07 -32.95102 -68.55846 10558 ft 215 kts 101°
2026-05-06 04:07 -32.95497 -68.54123 10915 ft 217 kts 101°
2026-05-06 04:07 -32.95897 -68.52382 11267 ft 219 kts 101°
2026-05-06 04:07 -32.96293 -68.50625 11610 ft 220 kts 97°
2026-05-06 04:08 -32.96183 -68.48849 11755 ft 217 kts 56°
2026-05-06 04:08 -32.95200 -68.47623 12019 ft 200 kts 15°
2026-05-06 04:08 -32.93893 -68.47340 12299 ft 190 kts 357°
2026-05-06 04:08 -32.92568 -68.47251 12633 ft 191 kts 355°
2026-05-06 04:09 -32.91687 -68.47213 12851 ft 191 kts 354°
2026-05-06 04:09 -32.90353 -68.47172 13032 ft 192 kts 354°
2026-05-06 04:09 -32.89013 -68.47134 13225 ft 193 kts 354°
2026-05-06 04:09 -32.87674 -68.47096 13417 ft 193 kts 353°
2026-05-06 04:10 -32.86328 -68.47063 13595 ft 194 kts 353°
2026-05-06 04:10 -32.84981 -68.47032 13770 ft 194 kts 353°
2026-05-06 04:10 -32.83633 -68.46998 13939 ft 194 kts 353°
2026-05-06 04:10 -32.82283 -68.46959 14094 ft 194 kts 353°
2026-05-06 04:11 -32.80928 -68.46919 14247 ft 195 kts 353°
2026-05-06 04:11 -32.79572 -68.46883 14391 ft 195 kts 352°
2026-05-06 04:11 -32.78215 -68.46853 14560 ft 195 kts 352°
2026-05-06 04:11 -32.76870 -68.46891 14724 ft 189 kts 340°
2026-05-06 04:12 -32.75883 -68.47748 14866 ft 178 kts 296°
2026-05-06 04:12 -32.75866 -68.49214 15007 ft 193 kts 252°
2026-05-06 04:12 -32.76877 -68.50367 15143 ft 220 kts 212°
2026-05-06 04:12 -32.78467 -68.50548 15275 ft 244 kts 175°
2026-05-06 04:13 -32.80007 -68.49608 15405 ft 257 kts 141°
2026-05-06 04:13 -32.81380 -68.48278 15446 ft 252 kts 162°
2026-05-06 04:13 -32.83025 -68.47962 15563 ft 232 kts 200°
2026-05-06 04:13 -32.84368 -68.48755 15700 ft 206 kts 238°
2026-05-06 04:14 -32.84878 -68.50199 15831 ft 185 kts 274°
2026-05-06 04:14 -32.84814 -68.51718 15971 ft 184 kts 279°
2026-05-06 04:14 -32.84686 -68.53230 16216 ft 183 kts 280°
2026-05-06 04:14 -32.84557 -68.54745 16447 ft 184 kts 279°
2026-05-06 04:15 -32.84446 -68.56257 16715 ft 184 kts 279°
2026-05-06 04:15 -32.84351 -68.57770 17006 ft 184 kts 278°
2026-05-06 04:15 -32.84270 -68.59289 17305 ft 184 kts 278°
2026-05-06 04:15 -32.84198 -68.60812 17599 ft 184 kts 278°
2026-05-06 04:16 -32.84130 -68.62333 17881 ft 184 kts 278°
2026-05-06 04:16 -32.84063 -68.63837 18153 ft 184 kts 278°
2026-05-06 04:16 -32.83993 -68.65359 18391 ft 184 kts 278°
2026-05-06 04:16 -32.83921 -68.66878 18610 ft 184 kts 278°
2026-05-06 04:17 -32.83846 -68.68403 18816 ft 185 kts 278°
2026-05-06 04:17 -32.83775 -68.69928 19018 ft 185 kts 278°
2026-05-06 04:17 -32.83701 -68.71455 19217 ft 185 kts 278°
2026-05-06 04:17 -32.83636 -68.72985 19443 ft 185 kts 277°
2026-05-06 04:18 -32.83573 -68.74517 19667 ft 186 kts 277°
2026-05-06 04:18 -32.83504 -68.76051 19891 ft 186 kts 277°
2026-05-06 04:18 -32.83438 -68.77589 20105 ft 186 kts 277°
2026-05-06 04:18 -32.83371 -68.79128 20301 ft 187 kts 277°
2026-05-06 04:19 -32.83338 -68.80677 20506 ft 188 kts 274°
2026-05-06 04:19 -32.83382 -68.82237 20702 ft 189 kts 272°
2026-05-06 04:19 -32.83455 -68.83795 20887 ft 189 kts 272°
2026-05-06 04:19 -32.83533 -68.85356 21072 ft 189 kts 272°
2026-05-06 04:20 -32.83617 -68.86921 21229 ft 190 kts 272°
2026-05-06 04:20 -32.83684 -68.88487 21393 ft 189 kts 273°
2026-05-06 04:20 -32.83744 -68.90046 21534 ft 189 kts 273°
2026-05-06 04:20 -32.83806 -68.91612 21667 ft 190 kts 273°
2026-05-06 04:21 -32.83860 -68.93196 21774 ft 193 kts 273°
2026-05-06 04:21 -32.83918 -68.94783 22023 ft 192 kts 273°
2026-05-06 04:21 -32.83977 -68.96368 22234 ft 192 kts 273°
2026-05-06 04:21 -32.84036 -68.97955 22424 ft 192 kts 273°
2026-05-06 04:22 -32.84095 -68.99542 22587 ft 193 kts 273°
2026-05-06 04:22 -32.84151 -69.01138 22756 ft 193 kts 273°
2026-05-06 04:22 -32.84207 -69.02740 22897 ft 194 kts 273°
2026-05-06 04:23 -32.84322 -69.05948 23201 ft 194 kts 273°
2026-05-06 04:23 -32.84377 -69.07552 23344 ft 194 kts 273°
2026-05-06 04:23 -32.84433 -69.09157 23477 ft 194 kts 273°
2026-05-06 04:23 -32.84489 -69.10759 23515 ft 193 kts 273°
2026-05-06 04:24 -32.84542 -69.12337 23506 ft 189 kts 273°
2026-05-06 04:24 -32.84602 -69.13888 23466 ft 187 kts 272°
2026-05-06 04:24 -32.84662 -69.15435 23444 ft 188 kts 272°
2026-05-06 04:24 -32.84731 -69.16988 23467 ft 189 kts 272°
2026-05-06 04:25 -32.84793 -69.18551 23537 ft 190 kts 273°
2026-05-06 04:25 -32.84854 -69.20120 23570 ft 190 kts 272°
2026-05-06 04:25 -32.84926 -69.21698 23584 ft 191 kts 272°
2026-05-06 04:25 -32.84996 -69.23276 23591 ft 191 kts 272°
2026-05-06 04:26 -32.85071 -69.24848 23631 ft 190 kts 272°
2026-05-06 04:26 -32.85147 -69.26390 23791 ft 185 kts 272°
2026-05-06 04:26 -32.85222 -69.27917 23845 ft 185 kts 272°
2026-05-06 04:26 -32.85293 -69.29437 23883 ft 183 kts 272°
2026-05-06 04:27 -32.85363 -69.30963 23940 ft 187 kts 272°
2026-05-06 04:27 -32.85432 -69.32528 23999 ft 192 kts 272°
2026-05-06 04:27 -32.85504 -69.34113 24005 ft 197 kts 272°
2026-05-06 04:27 -32.85578 -69.35751 24005 ft 199 kts 272°
2026-05-06 04:28 -32.85642 -69.37390 24027 ft 198 kts 274°
2026-05-06 04:28 -32.85683 -69.39026 24046 ft 199 kts 271°
2026-05-06 04:28 -32.85781 -69.40677 23941 ft 199 kts 270°
2026-05-06 04:28 -32.85891 -69.42302 23817 ft 196 kts 271°
2026-05-06 04:29 -32.85968 -69.43908 23765 ft 194 kts 272°
2026-05-06 04:29 -32.86041 -69.45512 23796 ft 194 kts 272°
2026-05-06 04:29 -32.86112 -69.47112 23891 ft 194 kts 272°
2026-05-06 04:29 -32.86187 -69.48719 23946 ft 195 kts 272°
2026-05-06 04:30 -32.86266 -69.50320 23833 ft 193 kts 272°
2026-05-06 04:30 -32.86333 -69.51910 23754 ft 192 kts 272°
2026-05-06 04:30 -32.86400 -69.53496 23841 ft 192 kts 271°
2026-05-06 04:30 -32.86471 -69.55079 23826 ft 191 kts 271°
2026-05-06 04:31 -32.86538 -69.56659 23844 ft 191 kts 271°
2026-05-06 04:31 -32.86613 -69.58235 23911 ft 191 kts 274°
2026-05-06 04:31 -32.86697 -69.59800 23801 ft 187 kts 271°
2026-05-06 04:31 -32.86770 -69.61334 23761 ft 185 kts 272°
2026-05-06 04:32 -32.86809 -69.62863 23789 ft 186 kts 272°
2026-05-06 04:32 -32.86841 -69.64410 23818 ft 188 kts 272°
2026-05-06 04:32 -32.86893 -69.65966 23916 ft 189 kts 271°
2026-05-06 04:32 -32.86962 -69.67530 23946 ft 189 kts 271°
2026-05-06 04:33 -32.87027 -69.69085 23947 ft 187 kts 270°
2026-05-06 04:33 -32.87103 -69.70636 23959 ft 188 kts 270°
2026-05-06 04:33 -32.87187 -69.72185 24005 ft 188 kts 270°
2026-05-06 04:33 -32.87274 -69.73741 24026 ft 189 kts 271°
2026-05-06 04:34 -32.87353 -69.75308 24061 ft 191 kts 271°
2026-05-06 04:34 -32.87426 -69.76903 24048 ft 194 kts 271°
2026-05-06 04:34 -32.87499 -69.78497 24044 ft 192 kts 271°
2026-05-06 04:34 -32.87566 -69.80075 24070 ft 191 kts 271°
2026-05-06 04:35 -32.87632 -69.81646 24068 ft 190 kts 271°
2026-05-06 04:35 -32.87699 -69.83209 24066 ft 189 kts 271°
2026-05-06 04:35 -32.87767 -69.84779 24069 ft 190 kts 271°
2026-05-06 04:35 -32.87836 -69.86339 24018 ft 189 kts 271°
2026-05-06 04:36 -32.87901 -69.87874 24030 ft 187 kts 271°
2026-05-06 04:36 -32.87961 -69.89430 24114 ft 189 kts 271°
2026-05-06 04:36 -32.88028 -69.90992 24135 ft 189 kts 271°
2026-05-06 04:36 -32.88095 -69.92553 24123 ft 189 kts 271°
2026-05-06 04:37 -32.88160 -69.94110 24120 ft 188 kts 271°
2026-05-06 04:37 -32.88225 -69.95654 24113 ft 186 kts 271°
2026-05-06 04:37 -32.88292 -69.97188 24119 ft 185 kts 271°
2026-05-06 04:37 -32.88360 -69.98714 24125 ft 185 kts 271°
2026-05-06 04:38 -32.88426 -70.00232 24090 ft 182 kts 271°
2026-05-06 04:38 -32.88347 -70.01728 24142 ft 182 kts 278°
2026-05-06 04:38 -32.88158 -70.03218 24175 ft 183 kts 280°
2026-05-06 04:38 -32.87968 -70.04723 24185 ft 184 kts 278°
2026-05-06 04:39 -32.87769 -70.06214 24231 ft 182 kts 278°
2026-05-06 04:39 -32.87616 -70.07729 24017 ft 191 kts 277°
2026-05-06 04:39 -32.87470 -70.09382 23561 ft 211 kts 277°
2026-05-06 04:39 -32.87321 -70.11172 23204 ft 222 kts 277°
2026-05-06 04:40 -32.87158 -70.13026 22951 ft 228 kts 277°
2026-05-06 04:40 -32.86982 -70.14921 22701 ft 231 kts 278°
2026-05-06 04:40 -32.86798 -70.16818 22384 ft 231 kts 278°
2026-05-06 04:40 -32.86616 -70.18718 22078 ft 232 kts 278°
2026-05-06 04:41 -32.86428 -70.20622 21769 ft 232 kts 278°
2026-05-06 04:41 -32.86254 -70.22533 21434 ft 232 kts 277°
2026-05-06 04:41 -32.86085 -70.24442 21086 ft 232 kts 277°
2026-05-06 04:41 -32.85914 -70.26355 20858 ft 234 kts 277°
2026-05-06 04:42 -32.85741 -70.28281 20561 ft 234 kts 278°
2026-05-06 04:42 -32.85565 -70.30206 20287 ft 235 kts 278°
2026-05-06 04:42 -32.85383 -70.32138 20022 ft 237 kts 278°
2026-05-06 04:42 -32.85200 -70.34093 19725 ft 239 kts 278°
2026-05-06 04:43 -32.85018 -70.36064 19456 ft 241 kts 278°
2026-05-06 04:43 -32.84821 -70.38046 19155 ft 242 kts 278°
2026-05-06 04:43 -32.84619 -70.40047 18905 ft 245 kts 278°
2026-05-06 04:43 -32.84428 -70.42063 18627 ft 247 kts 278°
2026-05-06 04:44 -32.84233 -70.44099 18312 ft 248 kts 278°
2026-05-06 04:44 -32.84043 -70.46146 17976 ft 250 kts 278°
2026-05-06 04:44 -32.83849 -70.48199 17660 ft 251 kts 278°
2026-05-06 04:44 -32.83653 -70.50269 17331 ft 253 kts 278°
2026-05-06 04:45 -32.83454 -70.52328 17008 ft 255 kts 278°
2026-05-06 04:45 -32.83261 -70.54418 16680 ft 256 kts 278°
2026-05-06 04:45 -32.83063 -70.56525 16354 ft 256 kts 278°
2026-05-06 04:45 -32.82863 -70.58635 16031 ft 257 kts 278°
2026-05-06 04:46 -32.82659 -70.60751 15716 ft 258 kts 278°
2026-05-06 04:46 -32.82456 -70.62874 15401 ft 259 kts 278°
2026-05-06 04:46 -32.82253 -70.65006 15088 ft 260 kts 278°
2026-05-06 04:46 -32.82048 -70.67147 14776 ft 261 kts 278°
2026-05-06 04:47 -32.81991 -70.69297 14461 ft 264 kts 262°
2026-05-06 04:47 -32.82827 -70.71272 14148 ft 276 kts 234°
2026-05-06 04:47 -32.84215 -70.72877 13822 ft 280 kts 226°
2026-05-06 04:47 -32.85705 -70.74389 13469 ft 283 kts 225°
2026-05-06 04:48 -32.87207 -70.75913 13092 ft 286 kts 225°
2026-05-06 04:48 -32.88699 -70.77497 12720 ft 287 kts 227°
2026-05-06 04:48 -32.90159 -70.79118 12340 ft 287 kts 227°
2026-05-06 04:48 -32.91623 -70.80740 11989 ft 288 kts 227°
2026-05-06 04:49 -32.93123 -70.82308 11630 ft 286 kts 218°
2026-05-06 04:49 -32.95005 -70.83088 11264 ft 292 kts 187°
2026-05-06 04:49 -32.97016 -70.82976 10937 ft 289 kts 177°
2026-05-06 04:49 -32.99013 -70.82793 10592 ft 287 kts 179°
2026-05-06 04:50 -33.01008 -70.82738 10259 ft 285 kts 181°
2026-05-06 04:50 -33.02973 -70.82527 9904 ft 284 kts 174°
2026-05-06 04:50 -33.04929 -70.82225 9540 ft 283 kts 174°
2026-05-06 04:50 -33.06887 -70.81990 9181 ft 282 kts 176°
2026-05-06 04:51 -33.08842 -70.81856 8831 ft 282 kts 179°
2026-05-06 04:51 -33.10774 -70.81775 8478 ft 281 kts 179°
2026-05-06 04:51 -33.12751 -70.81682 8124 ft 280 kts 179°
2026-05-06 04:51 -33.14671 -70.81591 7788 ft 279 kts 178°
2026-05-06 04:52 -33.16607 -70.81489 7448 ft 277 kts 178°
2026-05-06 04:52 -33.18463 -70.81382 7109 ft 262 kts 178°
2026-05-06 04:52 -33.20282 -70.81271 6796 ft 261 kts 178°
2026-05-06 04:52 -33.22098 -70.81167 6479 ft 261 kts 178°
2026-05-06 04:53 -33.23906 -70.81071 6140 ft 259 kts 178°
2026-05-06 04:53 -33.25652 -70.80986 5805 ft 239 kts 178°
2026-05-06 04:53 -33.27239 -70.80905 5507 ft 218 kts 178°
2026-05-06 04:53 -33.28719 -70.80833 5066 ft 205 kts 178°
2026-05-06 04:54 -33.30088 -70.80778 4723 ft 189 kts 178°
2026-05-06 04:54 -33.31401 -70.80730 4086 ft 192 kts 178°
2026-05-06 04:54 -33.32746 -70.80644 3398 ft 195 kts 176°
2026-05-06 04:54 -33.34088 -70.80540 2770 ft 191 kts 176°
2026-05-06 04:55 -33.35392 -70.80462 2161 ft 184 kts 178°
2026-05-06 04:55 -33.36629 -70.80416 1755 ft 170 kts 176°
2026-05-06 04:55 -33.37744 -70.80346 1607 ft 149 kts 176°
2026-05-06 04:55 -33.38710 -70.80292 1573 ft 131 kts 176°
2026-05-06 04:56 -33.39247 -70.80261 1569 ft 90 kts 177°
2026-05-06 04:56 -33.39768 -70.80233 1569 ft 44 kts 178°
2026-05-06 04:56 -33.40110 -70.80212 1571 ft 27 kts 178°
2026-05-06 04:56 -33.40225 -70.80210 1571 ft 22 kts 179°
2026-05-06 04:57 -33.40357 -70.80203 1571 ft 16 kts 177°
2026-05-06 04:57 -33.40456 -70.80196 1570 ft 12 kts 175°
2026-05-06 04:57 -33.40522 -70.80162 1571 ft 9 kts 143°
2026-05-06 04:57 -33.40587 -70.80119 1569 ft 6 kts 130°
2026-05-06 04:58 -33.40592 -70.80073 1566 ft 6 kts 88°
2026-05-06 04:58 -33.40592 -70.80064 1566 ft 0 kts 88°
2026-05-06 05:00 -33.40591 -70.80021 1564 ft 8 kts 88°
2026-05-06 05:01 -33.40559 -70.79975 1563 ft 9 kts
2026-05-06 05:01 -33.40496 -70.79975 1563 ft 9 kts 358°
2026-05-06 05:01 -33.40432 -70.79979 1563 ft 9 kts 357°
2026-05-06 05:01 -33.40366 -70.79983 1563 ft 10 kts 356°
2026-05-06 05:02 -33.40300 -70.79989 1563 ft 10 kts 355°
2026-05-06 05:02 -33.40232 -70.79996 1563 ft 10 kts 355°
2026-05-06 05:02 -33.40174 -70.79986 1563 ft 8 kts 41°
2026-05-06 05:02 -33.40164 -70.79919 1562 ft 8 kts 88°
2026-05-06 05:03 -33.40156 -70.79859 1561 ft 7 kts 55°
2026-05-06 05:03 -33.40145 -70.79820 1561 ft 2 kts 85°
2026-05-06 05:03 -33.40143 -70.79787 1561 ft 5 kts 86°
2026-05-06 05:03 -33.40129 -70.79750 1561 ft 4 kts 23°
2026-05-06 05:04 -33.40093 -70.79751 1561 ft 6 kts 356°
2026-05-06 05:04 -33.40077 -70.79752 1561 ft 4 kts 357°
2026-05-06 05:04 -33.40062 -70.79753 1561 ft 1 kts 356°
2026-05-06 05:04 -33.40060 -70.79753 1561 ft 0 kts 355°
2026-05-06 05:05 -33.40059 -70.79753 1561 ft 0 kts 355°